Theta_e
296 291 291 295 301 307 310 312 317 316 324 327 329 341 340 348 356 357 355 356 358 362 360 361 360 360 359 359 359 359 360 360
293 291 297 300 303 305 306 313 316 323 322 330 339 340 347 353 356 354 354 355 360 362 361 360 360 359 359 359 359 359 359 359
289 293 298 303 304 304 304 312 312 320 321 326 341 348 350 352 354 352 354 355 358 361 361 361 360 360 359 359 358 359 359 358
288 294 301 302 304 303 302 309 322 323 321 323 343 346 348 350 350 354 354 356 356 360 361 360 360 360 359 358 358 358 358 358
291 296 297 302 304 301 302 303 308 321 319 323 337 344 346 346 349 352 355 355 355 356 359 361 359 359 359 358 357 357 357 357
292 294 296 303 300 299 300 303 313 321 314 316 328 343 344 343 347 347 352 353 354 356 357 355 356 359 359 358 358 357 357 357
292 293 296 299 298 302 306 306 308 311 316 319 336 342 340 342 345 346 348 349 352 354 355 355 354 357 359 359 359 358 357 357
298 299 299 300 297 299 303 304 306 309 311 318 338 339 339 340 340 343 343 346 350 352 353 354 356 354 355 355 355 354 353 351
300 302 301 298 300 301 301 298 302 304 307 308 314 328 337 340 341 342 345 345 348 350 351 351 353 354 354 354 354 354 352 350
300 302 301 300 303 301 300 302 306 306 308 306 306 311 323 333 337 341 343 343 345 348 348 349 351 351 350 351 351 351 352 350
300 300 299 300 299 300 300 305 306 306 306 304 304 305 309 315 323 340 342 342 343 345 346 347 345 349 349 350 350 350 351 350
298 298 297 297 299 299 302 306 305 304 304 303 303 304 303 310 324 333 343 342 343 343 343 342 342 345 345 348 349 349 349 349
296 298 297 298 296 297 303 304 303 302 302 303 304 305 305 305 316 333 338 341 340 342 343 340 340 343 343 345 346 347 348 348
294 297 299 298 292 299 303 301 301 302 302 302 303 305 305 306 307 328 337 339 341 343 341 337 340 342 342 342 340 343 343 344
293 297 297 294 291 299 301 300 300 300 301 302 302 304 305 306 305 312 336 339 340 339 338 335 342 345 344 341 338 339 337 336
290 294 295 293 293 296 299 298 299 299 300 301 302 303 306 307 308 313 331 339 338 335 333 333 332 333 341 346 346 340 336 336
293 296 293 292 292 295 298 296 295 296 298 300 300 304 304 305 309 321 328 333 335 331 331 333 332 330 334 338 342 345 345 343
292 295 292 292 292 295 296 296 295 296 297 299 299 302 304 304 306 315 326 331 331 331 327 326 324 337 340 340 340 341 341 340
290 294 293 291 289 292 296 297 298 298 298 299 300 300 302 303 305 311 319 323 326 322 323 321 318 323 324 324 325 327 327 329
293 289 284 291 282 288 292 294 296 298 297 298 299 301 302 302 304 310 311 313 316 318 318 319 320 320 318 316 316 320 321 325
Wind_Speed
5 3 5 6 3 6 7 15 6 5 3 2 1 3 8 7 15 12 10 9 12 16 15 17 17 16 15 15 14 14 15 15
5 6 7 4 8 6 11 10 2 4 6 4 2 7 7 14 16 14 10 9 14 16 15 17 17 17 16 15 14 14 14 15
2 6 5 5 6 6 8 7 2 7 3 2 4 10 17 15 13 14 10 8 12 16 15 16 17 16 16 16 15 15 15 15
4 6 4 6 7 4 5 5 2 6 6 1 5 12 12 15 13 12 12 8 9 13 14 14 16 16 16 15 15 15 14 14
4 5 5 4 5 6 5 7 4 8 5 2 6 5 12 13 11 12 11 11 8 7 10 14 15 15 15 15 15 15 15 14
5 5 8 4 5 4 4 7 2 5 6 6 6 9 8 6 6 7 9 10 12 12 11 9 8 14 14 14 14 13 13 12
6 7 5 5 8 6 5 0 4 5 4 6 13 13 8 8 5 4 6 6 8 10 10 9 8 9 12 15 14 14 13 13
6 3 5 4 2 4 6 8 6 4 9 8 13 17 14 11 11 9 11 8 8 9 11 11 9 8 8 8 6 6 6 5
6 7 4 4 7 2 6 3 3 1 1 7 5 5 6 9 12 17 11 9 10 8 8 10 9 7 6 6 5 5 7 6
4 6 4 6 6 5 2 6 5 5 1 2 11 7 10 9 9 8 9 11 11 9 8 9 5 6 7 8 7 8 9 8
7 9 6 5 8 8 6 11 7 6 3 5 6 7 7 9 10 12 10 10 12 12 11 9 5 5 5 8 8 9 10 9
5 9 5 5 11 8 8 10 8 5 8 7 9 10 6 7 7 10 14 14 13 14 12 9 7 6 5 5 6 6 7 7
5 7 8 7 8 7 12 7 8 8 9 9 8 8 10 10 9 9 8 10 16 16 12 11 8 6 5 6 5 6 6 8
6 2 7 9 7 7 10 7 11 11 9 8 9 10 10 8 8 9 5 10 11 11 11 7 8 6 5 5 5 6 4 4
6 3 1 3 6 9 6 8 11 11 10 8 9 8 11 10 10 11 13 8 9 8 11 10 7 6 6 6 5 5 3 3
5 3 3 7 9 9 8 7 14 11 8 8 9 14 11 11 7 9 9 9 8 8 9 8 5 3 3 4 5 4 4 5
6 4 2 8 7 9 9 5 9 8 8 10 10 12 9 6 4 6 5 7 9 9 10 8 4 3 2 4 2 3 4 6
9 6 7 7 9 9 6 5 7 8 8 10 7 7 8 7 7 9 11 12 8 9 7 5 4 4 4 4 3 3 3 3
8 6 2 3 6 5 6 5 7 4 5 6 8 9 10 8 8 6 9 9 10 10 9 6 5 2 3 4 4 4 4 3
8 2 4 3 6 6 5 8 5 9 9 9 9 9 11 9 8 10 7 7 7 6 6 3 5 3 3 3 3 1 2 1
Wind_Direction
94 122 187 234 258 278 286 295 234 160 100 67 110 70 150 134 141 134 144 151 155 150 151 140 140 138 137 137 137 138 138 138
96 227 257 235 289 302 320 319 256 89 71 74 111 161 145 140 142 141 147 155 155 150 153 147 146 147 145 147 148 148 150 151
142 255 259 276 291 318 300 282 305 132 118 38 13 107 129 140 146 145 148 156 152 151 157 154 152 153 154 157 160 161 161 164
232 254 255 289 272 290 298 327 302 76 102 253 131 136 148 151 155 151 148 149 153 155 158 158 157 161 164 165 168 170 171 173
200 268 283 241 320 306 287 279 247 147 105 114 202 164 156 154 146 150 153 148 149 154 164 165 166 168 171 172 175 179 179 179
218 206 268 191 329 267 281 292 86 143 169 195 198 143 128 115 122 148 164 164 163 166 171 170 171 176 176 178 182 183 185 185
209 179 243 332 19 323 291 304 339 325 141 166 129 126 111 120 121 135 170 180 178 172 170 168 167 181 183 189 189 188 190 193
202 213 269 314 360 307 338 352 351 30 45 67 142 151 152 166 175 181 192 190 186 181 178 173 177 179 177 183 182 189 187 189
256 268 284 259 298 107 310 316 251 52 46 119 108 134 160 183 186 193 182 183 188 189 185 183 180 172 179 191 186 194 188 181
256 258 275 264 293 309 222 252 248 191 167 340 139 179 187 188 204 186 185 185 179 187 189 193 182 178 177 191 189 198 206 187
252 265 247 286 261 251 264 252 225 273 180 198 214 179 189 199 205 194 188 188 188 183 189 189 187 183 184 194 193 201 204 198
289 272 252 207 263 144 258 242 255 226 256 235 216 230 151 191 199 184 193 188 181 194 188 178 187 180 186 187 198 202 207 205
243 256 240 175 277 206 237 233 238 252 243 254 241 245 234 197 198 189 202 188 184 191 180 184 183 183 180 187 188 204 204 198
279 230 264 153 250 262 254 260 263 256 250 241 248 230 237 230 196 199 191 186 195 183 178 169 170 179 181 190 190 209 201 212
300 222 259 215 284 262 291 250 249 258 258 256 269 259 244 246 178 198 200 187 171 172 172 172 169 173 183 185 199 207 183 229
217 273 356 313 275 284 278 277 249 247 259 270 266 255 238 235 203 198 190 179 175 169 158 174 176 189 176 183 214 185 194 206
261 246 275 256 247 279 292 335 291 251 245 257 257 260 249 233 179 150 164 183 183 170 189 161 157 180 182 190 159 198 180 202
289 261 154 273 258 258 276 282 249 237 253 246 245 257 263 229 187 197 182 194 179 199 174 164 155 168 168 168 184 146 142 150
221 305 244 303 310 295 295 306 335 311 258 265 250 272 286 263 212 173 176 193 188 183 178 187 173 95 68 59 46 53 31 25
234 174 243 91 275 299 299 315 306 305 305 281 259 247 249 253 192 194 197 160 164 160 161 161 149 100 92 113 118 160 112 344